Regional Weather Roundup
Issued by NWS

Home | Current Version | Previous Version | Graphics & Text | Print | Product List | Glossary On
Versions: 1 2 3 4 5 6 7 8 9 10 11 12 13 14 15 16 17 18 19 20 21 22 23 24 25 26 27 28 29 30 31 32 33 34 35 36 37 38 39 40 41 42 43 44 45 46 47 48 49 50
000
ASUS43 KDTX 271401
RWRMI
MICHIGAN HOURLY REGIONAL WEATHER ROUNDUP
NATIONAL WEATHER SERVICE DETROIT/PONTIAC MI
1000 AM EDT WED MAY 27 2015

NOTE: "FAIR" INDICATES FEW OR NO CLOUDS BELOW 12,000 FEET WITH NO
SIGNIFICANT WEATHER AND/OR OBSTRUCTION TO VISIBILITY.

MIZ047>049-052>055-059>063-066>070-074>076-081>083-271500-
SOUTHEAST LOWER MICHIGAN

CITY           SKY/WX    TMP DP  RH WIND       PRES   REMARKS
ADRIAN         MOSUNNY   72  63  73 SW14G22   29.99S
ALMA           CLOUDY    69  63  80 SW10G17   29.89R
ANN ARBOR      MOSUNNY   72  63  73 SW17G23   29.97S
BAD AXE        PTSUNNY   71  61  69 SW16G24   29.89S
CARO           PTSUNNY   73  63  70 SW14G23   29.89F
DETROIT CITY   MOSUNNY   73  62  68 SW13      29.97S
DETROIT        MOSUNNY   74  62  66 SW16      29.98S
FLINT          MOSUNNY   74  61  63 SW14G26   29.92S
GROSSE ILE     MOSUNNY   73  64  73 SW13G21   29.98S
HILLSDALE      MOSUNNY   72  65  78 SW12      29.99S
HOWELL         MOSUNNY   73  62  68 SW14G24   29.95R

CITY           SKY/WX    TMP DP  RH WIND       PRES   REMARKS
JACKSON        MOSUNNY   72  61  68 SW17G25   29.97R
LAMBERTVILLE   SUNNY     73  61  64 W12G17    30.00S
LANSING        PTSUNNY   71  61  70 SW21G28   29.93S
LAPEER         FAIR      72  60  65 MISG      29.93S
MASON          MOSUNNY   69  60  73 SW12G20   29.95R
MT. CLEMENS    MOSUNNY   75  64  66 SW13      29.94S
PONTIAC        MOSUNNY   72  62  71 SW13      29.95S
PORT HOPE        N/A    N/A N/A N/A SW16G29   29.86R
PORT HURON     MOSUNNY   72  64  78 S13G20    29.95S
TRI CITIES     CLOUDY    72  62  71 SW20      29.89R
MIDLAND        CLOUDY    71  60  69 SW18G25   29.87R
TROY           MOSUNNY   74  63  69 SW14      29.97S
SAGINAW HB     CLOUDY    72  63  73 SW17G26   29.88S
$$
MIZ043>046-050>051-056>058-064>065-071>073-077>080-271500-
SOUTHWEST LOWER MICHIGAN

CITY           SKY/WX    TMP DP  RH WIND       PRES   REMARKS
BATTLE CREEK   MOSUNNY   72  61  68 SW18      29.96R
BENTON HARBOR  SUNNY     69  62  78 SW22G31   29.95R
BIG RAPIDS     CLOUDY    63  59  88 SW13G20   29.87R
COLDWATER      PTSUNNY   70  61  73 SW16G23   29.98R
FREMONT        CLOUDY    63  61  94 SW13      29.88R
HOLLAND        MOSUNNY   69  61  75 SW20G32   29.94R
GRAND RAPIDS   PTSUNNY   71  61  70 SW23G31   29.91R
IONIA          PTSUNNY   72  61  68 SW17G32   29.90R
KALAMAZOO      MOSUNNY   72  60  66 SW14G28   29.96R
LUDINGTON      MOSUNNY   61  56  83 SW12G20   29.85S
MARSHALL       MOSUNNY   72  61  68 SW14G26   29.96R
MOUNT PLEASANT CLOUDY    68  62  78 SW14      29.87R
MUSKEGON       PTSUNNY   63  57  81 SW17G25   29.90R
SOUTH HAVEN    SUNNY     70  61  72 SW15G29   29.95R
$$
MIZ016>042-271500-
NORTHERN LOWER MICHIGAN

CITY           SKY/WX    TMP DP  RH WIND       PRES   REMARKS
ALPENA         MOSUNNY   73  58  59 SW17G29   29.78R
BEAVER ISLAND  FOG       46  46  99 SW14      29.75R VSB 1/4
BELLAIRE       CLOUDY    64  57  78 S9        29.78S
CADILLAC       CLOUDY    66  58  75 SW18G25   29.84S
CHARLEVOIX     HVY RAIN  59  57  94 W12       29.80R VSB 1
FRANKFORT      CLOUDY    57  50  76 SW14G23   29.82R
GAYLORD        CLOUDY    63  58  83 SW15G25   29.80R
HARBOR SPRINGS CLOUDY    56  55  96 SW10G16   29.75S FOG
HOUGHTON LAKE  CLOUDY    66  57  72 SW14G22   29.84R
MANISTEE       CLOUDY    63  54  72 SW10G18   29.84R
OSCODA         CLOUDY    71  62  73 SW16G23   29.82S
PELLSTON       LGT RAIN  61  59  93 SW12G20   29.75R FOG
ROGERS CITY    PTSUNNY   71  59  66 SW21G29   29.77R
TRAVERSE CITY  CLOUDY    65  56  72 SW10G21   29.78S
$$
MIZ007>008-015-271500-
EASTERN UPPER MICHIGAN

CITY           SKY/WX    TMP DP  RH WIND       PRES   REMARKS
KINROSS        CLOUDY    55  54  94 SW7       29.71S
MACKINAC ISLAN FOG       53  53 100 SW13G28   29.73R VSB<1/4
NEWBERRY       CLOUDY    53  52  96 SW9       29.70R
S. S. MARIE    CLOUDY    58  56  93 SW10      29.69R
$$
MIZ004>006-011>014-085-271500-
CENTRAL UPPER MICHIGAN

CITY           SKY/WX    TMP DP  RH WIND       PRES   REMARKS
MANISTIQUE     LGT RAIN  50  49  95 NW6       29.75R
ESCANABA       CLOUDY    57  54  88 W9        29.77R
MENOMINEE      CLOUDY    57  54  88 NW9       29.80R
SAWYER-GWINN   RAIN      54  52  94 NW13      29.77R
$$
MIZ001>003-009>011-084-271500-
WESTERN UPPER MICHIGAN

CITY           SKY/WX    TMP DP  RH WIND       PRES   REMARKS
IRON MOUNTAIN  LGT RAIN  56  53  90 NW9G18    29.81R
HOUGHTON       PTSUNNY   57  52  83 W20       29.76R
COPPER HARBOR    N/A     54  50  86 N6        29.74R
IRONWOOD       CLOUDY    57  55  94 W10       29.81R
$$

ABBREVIATIONS USED IN REMARKS
   TC - TEMPERATURE IN CELSIUS
  WCI - WIND CHILL INDEX
   HX - HEAT INDEX
  VSB - VISIBILITY



USA.gov is the U.S. government's official web portal to all federal, state and local government web resources and services.